Location: ?ern� Novina
(50.6762°N, 14.8696°E)
Time: 12:52:18
(UTC+00:00)

BREEZE-M DEB (TANK) - Pass Details

Date: 03 March 2021
Orbit: 351 x 16374 km, 49.4° (Epoch: 16 April)

Event Time Altitude Azimuth Distance (km) Brightness Sun altitude
Rises 17:18:03 0° 216° (SW) 5,413 8.0 -6.0°
Reaches altitude 10° 17:23:40 10° 202° (SSW) 2,901 6.3 -6.8°
Maximum altitude 17:27:34 18° 159° (SSE) 1,515 4.4 -7.5°
Drops below altitude 10° 17:29:50 10° 111° (ESE) 1,578 4.1 -7.8°
Enters shadow 17:29:59 - 109° (ESE) 1,616 4.1 -7.8°
